| time (UTC) | temp F | wind direction | speed MPH | gust MPH | rain 1hr in | rain 24hr in | rain mn in | humidity % | barometer mb |
| 20260508205822 | 53 | 293 | 7.0 | 14.0 | 0.00 | 0.00 | 0.00 | 10 | 1005.9 |
| 20260508205311 | 53 | 293 | 5.0 | 18.0 | 0.00 | 0.00 | 0.00 | 10 | 1006.1 |
| 20260508204800 | 53 | 293 | 6.0 | 18.0 | 0.00 | 0.00 | 0.00 | 10 | 1005.9 |
| 20260508204253 | 54 | 293 | 9.0 | 17.0 | 0.00 | 0.00 | 0.00 | 10 | 1005.9 |
| 20260508203744 | 55 | 315 | 9.0 | 18.0 | 0.00 | 0.00 | 0.00 | 10 | 1005.8 |
| 20260508202721 | 55 | 293 | 8.0 | 17.0 | 0.00 | 0.00 | 0.00 | 10 | 1005.7 |
| 20260508202210 | 55 | 293 | 8.0 | 18.0 | 0.00 | 0.00 | 0.00 | 10 | 1005.6 |
| 20260508201659 | 55 | 293 | 8.0 | 20.0 | 0.00 | 0.00 | 0.00 | 10 | 1005.5 |
| 20260508200642 | 56 | 293 | 12.0 | 25.0 | 0.00 | 0.00 | 0.00 | 10 | 1005.5 |
| 20260508200129 | 56 | 293 | 15.0 | 25.0 | 0.00 | 0.00 | 0.00 | 10 | 1005.6 |
| 20260508195618 | 56 | 270 | 11.0 | 24.0 | 0.00 | 0.00 | 0.00 | 10 | 1005.6 |
| 20260508195110 | 56 | 315 | 11.0 | 24.0 | 0.00 | 0.00 | 0.00 | 10 | 1005.7 |
| 20260508194048 | 56 | 293 | 11.0 | 30.0 | 0.00 | 0.00 | 0.00 | 10 | 1005.5 |
| 20260508193028 | 57 | 293 | 10.0 | 24.0 | 0.00 | 0.00 | 0.00 | 10 | 1005.2 |
| 20260508192518 | 57 | 270 | 13.0 | 27.0 | 0.00 | 0.00 | 0.00 | 10 | 1005.3 |
| 20260508192008 | 57 | 293 | 16.0 | 27.0 | 0.00 | 0.00 | 0.00 | 10 | 1005.4 |
| 20260508191459 | 57 | 270 | 17.0 | 30.0 | 0.00 | 0.00 | 0.00 | 10 | 1005.0 |
| 20260508190949 | 57 | 270 | 15.0 | 30.0 | 0.00 | 0.00 | 0.00 | 10 | 1005.3 |
| 20260508190438 | 57 | 293 | 16.0 | 29.0 | 0.00 | 0.00 | 0.00 | 10 | 1005.5 |
| 20260508185927 | 56 | 293 | 22.0 | 29.0 | 0.00 | 0.00 | 0.00 | 10 | 1005.4 |
| 20260508185418 | 57 | 270 | 21.0 | 27.0 | 0.00 | 0.00 | 0.00 | 10 | 1005.5 |
| 20260508184908 | 57 | 293 | 13.0 | 29.0 | 0.00 | 0.00 | 0.00 | 10 | 1005.3 |
| 20260508184356 | 56 | 293 | 24.0 | 30.0 | 0.00 | 0.00 | 0.00 | 10 | 1005.1 |
| 20260508183847 | 57 | 293 | 23.0 | 30.0 | 0.00 | 0.00 | 0.00 | 10 | 1005.5 |
| 20260508182827 | 57 | 270 | 21.0 | 31.0 | 0.00 | 0.00 | 0.00 | 10 | 1005.3 |
| 20260508182316 | 57 | 293 | 20.0 | 31.0 | 0.00 | 0.00 | 0.00 | 10 | 1005.3 |
| 20260508181807 | 57 | 293 | 18.0 | 30.0 | 0.00 | 0.00 | 0.00 | 10 | 1005.3 |
| 20260508181256 | 57 | 293 | 21.0 | 27.0 | 0.00 | 0.00 | 0.00 | 10 | 1005.5 |
| 20260508180750 | 57 | 270 | 17.0 | 29.0 | 0.00 | 0.00 | 0.00 | 10 | 1005.3 |
| 20260508175730 | 57 | 293 | 21.0 | 29.0 | 0.00 | 0.00 | 0.00 | 10 | 1005.6 |
| 20260508175220 | 57 | 270 | 23.0 | 29.0 | 0.00 | 0.00 | 0.00 | 10 | 1005.4 |
| 20260508174710 | 58 | 270 | 21.0 | 29.0 | 0.00 | 0.00 | 0.00 | 10 | 1005.4 |
| 20260508174201 | 56 | 293 | 21.0 | 29.0 | 0.00 | 0.00 | 0.00 | 10 | 1005.4 |
| 20260508173649 | 57 | 293 | 21.0 | 29.0 | 0.00 | 0.00 | 0.00 | 10 | 1005.3 |
| 20260508173140 | 57 | 270 | 15.0 | 27.0 | 0.00 | 0.00 | 0.00 | 10 | 1005.4 |
| 20260508172631 | 56 | 293 | 23.0 | 29.0 | 0.00 | 0.00 | 0.00 | 10 | 1005.4 |
| 20260508172121 | 56 | 293 | 20.0 | 29.0 | 0.00 | 0.00 | 0.00 | 10 | 1005.3 |
| 20260508171101 | 56 | 270 | 18.0 | 30.0 | 0.00 | 0.00 | 0.00 | 10 | 1005.5 |
| 20260508170549 | 56 | 293 | 21.0 | 29.0 | 0.00 | 0.00 | 0.00 | 10 | 1005.7 |
| 20260508170044 | 56 | 293 | 18.0 | 29.0 | 0.00 | 0.00 | 0.00 | 10 | 1005.7 |
| 20260508165527 | 55 | 293 | 19.0 | 0.0 | 0.00 | 0.00 | 0.00 | 10 | 1005.6 |